GW4987 Weather Reports


Display with metric or nautical units.
time (UTC)temp
F
wind
direction
speed
MPH
gust
MPH
rain 1hr
in
rain 24hr
in
rain mn
in
humidity
%
barometer
mb
20260902185003 78 185 10.0 20.0 0.00 0.00 0.00 44 1022.7
20260902184505 76 189 8.0 33.0 0.00 0.00 0.00 46 1023.0
20260902183004 77 199 15.0 19.0 0.00 0.00 0.00 48 1022.8
20260902182504 75 211 13.0 21.0 0.00 0.00 0.00 49 1022.9
20260902182004 75 211 13.0 21.0 0.00 0.00 0.00 49 1022.9
20260902181504 75 211 13.0 21.0 0.00 0.00 0.00 49 1023.0
20260902181004 76 252 7.0 14.0 0.00 0.00 0.00 48 1023.0
20260902180504 76 252 7.0 14.0 0.00 0.00 0.00 48 1023.0
20260902174503 75 213 22.0 24.0 0.00 0.00 0.00 49 1023.1
20260902174003 76 207 16.0 18.0 0.00 0.00 0.00 48 1023.4
20260902173504 74 182 12.0 14.0 0.00 0.00 0.00 50 1023.4
20260902173003 74 182 12.0 14.0 0.00 0.00 0.00 50 1023.5
20260902172503 76 225 11.0 19.0 0.00 0.00 0.00 48 1023.2
20260902172004 74 215 8.0 19.0 0.00 0.00 0.00 49 1023.2
20260902171504 76 186 8.0 17.0 0.00 0.00 0.00 47 1023.6
20260902171004 76 191 7.0 12.0 0.00 0.00 0.00 47 1023.1
20260902170504 76 191 7.0 12.0 0.00 0.00 0.00 47 1023.2
20260902164504 75 175 13.0 16.0 0.00 0.00 0.00 48 1023.1
20260902164004 74 197 8.0 13.0 0.00 0.00 0.00 47 1023.2
20260902163504 74 169 11.0 13.0 0.00 0.00 0.00 47 1023.1
20260902163003 74 178 18.0 27.0 0.00 0.00 0.00 47 1023.0
20260902162504 74 141 8.0 16.0 0.00 0.00 0.00 46 1023.2
20260902162005 74 228 14.0 16.0 0.00 0.00 0.00 47 1022.8
20260902160005 73 189 15.0 16.0 0.00 0.00 0.00 49 1022.8
20260902155504 72 174 11.0 18.0 0.00 0.00 0.00 47 1022.9
20260902155004 72 196 11.0 11.0 0.00 0.00 0.00 50 1022.6
20260902154504 72 196 11.0 11.0 0.00 0.00 0.00 50 1022.8
20260902154004 72 173 4.0 6.0 0.00 0.00 0.00 50 1022.8
20260902153504 72 209 12.0 18.0 0.00 0.00 0.00 49 1022.8
20260902153004 72 209 12.0 18.0 0.00 0.00 0.00 49 1022.9
20260902152504 72 209 12.0 18.0 0.00 0.00 0.00 49 1022.8
20260902152004 72 222 8.0 11.0 0.00 0.00 0.00 52 1022.8
20260902151504 72 211 8.0 15.0 0.00 0.00 0.00 53 1022.6
20260902151004 71 171 14.0 17.0 0.00 0.00 0.00 52 1022.8
20260902150504 71 171 14.0 17.0 0.00 0.00 0.00 52 1022.9
20260902150003 71 171 14.0 17.0 0.00 0.00 0.00 52 1022.7
20260902145503 71 171 14.0 17.0 0.00 0.00 0.00 52 1022.8
20260902145004 70 168 9.0 9.0 0.00 0.00 0.00 56 1022.9
20260902144503 70 168 9.0 9.0 0.00 0.00 0.00 56 1022.9
20260902144004 70 168 9.0 9.0 0.00 0.00 0.00 56 1022.9
20260902134504 64 182 3.0 5.0 0.00 0.00 0.00 77 1022.5
20260902134004 64 182 3.0 5.0 0.00 0.00 0.00 77 1022.5
20260902133504 64 182 3.0 5.0 0.00 0.00 0.00 77 1022.6
20260902133003 64 182 3.0 5.0 0.00 0.00 0.00 77 1022.5
20260902132503 64 182 3.0 5.0 0.00 0.00 0.00 77 1022.3
20260902132004 64 182 3.0 5.0 0.00 0.00 0.00 77 1022.3
20260902131503 64 182 3.0 5.0 0.00 0.00 0.00 77 1022.4
20260902131003 64 182 3.0 5.0 0.00 0.00 0.00 77 1022.3
20260902130504 64 182 3.0 5.0 0.00 0.00 0.00 77 1022.3
20260902083504 69 199 8.0 11.0 0.00 0.00 0.00 64 1022.4
20260902081504 69 199 8.0 11.0 0.00 0.00 0.00 64 1022.4
20260902081003 69 199 8.0 11.0 0.00 0.00 0.00 64 1022.6
20260902075004 69 199 8.0 11.0 0.00 0.00 0.00 64 1022.4
20260902074504 69 199 8.0 11.0 0.00 0.00 0.00 64 1022.5
20260902074004 69 199 8.0 11.0 0.00 0.00 0.00 64 1022.5
20260902041504 70 180 4.0 4.0 0.00 0.00 0.00 60 1022.5
20260902041004 70 180 4.0 4.0 0.00 0.00 0.00 60 1022.3
20260902040504 70 180 4.0 4.0 0.00 0.00 0.00 60 1022.5
20260902040004 70 180 4.0 4.0 0.00 0.00 0.00 60 1022.5
20260902035504 70 180 4.0 4.0 0.00 0.00 0.00 60 1022.3
20260902035004 70 180 4.0 4.0 0.00 0.00 0.00 60 1022.4
20260902034503 70 180 4.0 4.0 0.00 0.00 0.00 60 1022.4
20260902034003 70 180 4.0 4.0 0.00 0.00 0.00 60 1022.3
20260902033504 70 180 4.0 4.0 0.00 0.00 0.00 60 1022.3
20260902033003 70 180 4.0 4.0 0.00 0.00 0.00 60 1022.3
20260902032503 70 180 4.0 4.0 0.00 0.00 0.00 60 1021.9
20260902032004 70 180 4.0 4.0 0.00 0.00 0.00 60 1021.9
20260902030004 72 213 11.0 12.0 0.00 0.00 0.00 54 1021.8
20260902025503 72 213 11.0 12.0 0.00 0.00 0.00 54 1022.0
20260902025003 72 213 11.0 12.0 0.00 0.00 0.00 54 1021.6
20260902024504 72 213 11.0 12.0 0.00 0.00 0.00 54 1021.6
20260902024003 72 213 11.0 12.0 0.00 0.00 0.00 54 1021.5
20260902023503 72 213 11.0 12.0 0.00 0.00 0.00 54 1021.7
20260902023004 72 213 11.0 12.0 0.00 0.00 0.00 54 1021.6
20260902022503 72 213 11.0 12.0 0.00 0.00 0.00 54 1021.6
20260902022003 72 213 11.0 12.0 0.00 0.00 0.00 54 1021.6
20260902021504 72 213 11.0 12.0 0.00 0.00 0.00 54 1021.8
20260902021003 72 213 11.0 12.0 0.00 0.00 0.00 54 1021.7
20260902020503 72 213 11.0 12.0 0.00 0.00 0.00 54 1021.7
20260902020004 73 190 14.0 15.0 0.00 0.00 0.00 53 1021.5
20260902015504 73 190 14.0 15.0 0.00 0.00 0.00 53 1021.3
20260902015004 73 203 11.0 11.0 0.00 0.00 0.00 53 1021.5
20260902014504 73 214 10.0 11.0 0.00 0.00 0.00 52 1021.4
20260902014004 73 210 7.0 16.0 0.00 0.00 0.00 52 1021.4
20260902013504 74 207 12.0 14.0 0.00 0.00 0.00 50 1021.4
20260902013004 74 207 12.0 14.0 0.00 0.00 0.00 50 1021.5
20260902012504 75 234 8.0 11.0 0.00 0.00 0.00 47 1021.5
20260902012004 75 234 8.0 11.0 0.00 0.00 0.00 47 1021.4
20260902011504 76 202 12.0 16.0 0.00 0.00 0.00 45 1021.6
20260902011003 76 202 12.0 16.0 0.00 0.00 0.00 45 1021.6
20260902010504 76 202 12.0 16.0 0.00 0.00 0.00 45 1021.7
20260902010004 76 205 7.0 13.0 0.00 0.00 0.00 46 1021.6
20260902005503 76 215 9.0 16.0 0.00 0.00 0.00 46 1021.7
20260902005003 76 220 15.0 20.0 0.00 0.00 0.00 45 1021.6
20260902004504 76 181 13.0 15.0 0.00 0.00 0.00 44 1021.6
20260902004003 76 205 15.0 16.0 0.00 0.00 0.00 44 1021.6
20260902003503 77 194 11.0 19.0 0.00 0.00 0.00 42 1021.5
20260902003004 78 212 6.0 8.0 0.00 0.00 0.00 44 1021.7
20260902002504 77 210 10.0 17.0 0.00 0.00 0.00 44 1021.7
20260902002003 78 205 8.0 13.0 0.00 0.00 0.00 45 1021.7
20260902001504 77 212 9.0 18.0 0.00 0.00 0.00 46 1021.8
20260902001004 77 215 8.0 8.0 0.00 0.00 0.00 48 1021.7
20260902000504 78 237 6.0 7.0 0.00 0.00 0.00 46 1021.7
20260902000004 78 178 8.0 17.0 0.00 0.00 0.00 46 1021.6
20260901235503 78 254 8.0 15.0 0.00 0.00 0.00 44 1021.7
20260901235004 77 216 3.0 9.0 0.00 0.00 0.00 45 1021.6
20260901234504 78 200 15.0 15.0 0.00 0.00 0.00 44 1021.8
20260901234003 79 221 10.0 11.0 0.00 0.00 0.00 43 1021.7
20260901233503 79 221 10.0 11.0 0.00 0.00 0.00 43 1021.7
20260901233003 77 219 11.0 17.0 0.00 0.00 0.00 46 1022.0
20260901232504 77 222 12.0 20.0 0.00 0.00 0.00 45 1022.0
20260901232004 78 214 15.0 21.0 0.00 0.00 0.00 43 1021.8
20260901231504 78 229 12.0 20.0 0.00 0.00 0.00 43 1021.7
20260901231004 78 196 8.0 17.0 0.00 0.00 0.00 43 1021.8
20260901230504 78 228 14.0 24.0 0.00 0.00 0.00 41 1021.9
20260901230004 79 260 6.0 10.0 0.00 0.00 0.00 39 1021.9
20260901224004 79 283 15.0 22.0 0.00 0.00 0.00 43 1021.9
20260901223504 78 214 4.0 12.0 0.00 0.00 0.00 44 1022.1
20260901223004 78 254 13.0 17.0 0.00 0.00 0.00 43 1022.0
20260901221003 80 188 12.0 14.0 0.00 0.00 0.00 40 1021.9
20260901220503 79 220 13.0 13.0 0.00 0.00 0.00 40 1022.0
20260901220004 80 213 6.0 11.0 0.00 0.00 0.00 39 1022.1
20260901214004 80 190 10.0 10.0 0.00 0.00 0.00 43 1022.1
20260901213504 80 190 10.0 10.0 0.00 0.00 0.00 43 1022.3
20260901213004 79 149 15.0 25.0 0.00 0.00 0.00 43 1022.3
20260901211003 76 157 4.0 5.0 0.00 0.00 0.00 54 1022.4
20260901210503 76 157 4.0 5.0 0.00 0.00 0.00 54 1022.3
20260901210004 76 157 4.0 5.0 0.00 0.00 0.00 54 1022.6
20260901204004 76 227 9.0 13.0 0.00 0.00 0.00 46 1022.8
20260901203504 76 227 9.0 13.0 0.00 0.00 0.00 46 1022.7
20260901203004 79 154 11.0 15.0 0.00 0.00 0.00 48 1022.6
20260901202503 79 154 11.0 15.0 0.00 0.00 0.00 48 1022.6
20260901202003 79 154 11.0 15.0 0.00 0.00 0.00 48 1022.7
20260901201504 79 154 11.0 15.0 0.00 0.00 0.00 48 1022.7
20260901195503 77 135 17.0 23.0 0.00 0.00 0.00 51 1023.0
20260901195003 77 135 17.0 23.0 0.00 0.00 0.00 51 1023.0
20260901194504 77 135 17.0 23.0 0.00 0.00 0.00 51 1022.8
20260901194004 77 135 17.0 23.0 0.00 0.00 0.00 51 1022.9
20260901193504 77 135 17.0 23.0 0.00 0.00 0.00 51 1022.9
20260901193004 77 135 17.0 23.0 0.00 0.00 0.00 51 1023.0
20260901192503 77 135 17.0 23.0 0.00 0.00 0.00 51 1023.1
20260901192003 77 135 17.0 23.0 0.00 0.00 0.00 51 1023.1
20260901191505 76 180 12.0 16.0 0.00 0.00 0.00 52 1023.0
20260901191004 76 180 12.0 16.0 0.00 0.00 0.00 52 1023.4
20260901190504 77 180 7.0 9.0 0.00 0.00 0.00 50 1023.4
20260901190004 77 180 7.0 9.0 0.00 0.00 0.00 50 1023.4
20260901185503 75 192 13.0 17.0 0.00 0.00 0.00 53 1023.7